Flag Weather past 2 weeks in Wainwright, Alaska, U.S.A.

Now
7 °F

Light snow. Overcast.


Feels Like: -13 °F
Forecast: -1 / 4 °F
Wind: 21 mph from Northeast

Location: Wainwright Distant Early Warning

Current Time: Nov 28, 2014 at 4:35:39 PM

Latest Report: Nov 28, 2014 at 3:53 PM


Visibility: 1 mi

Pressure: 30.11 "Hg

Humidity: 79%

Dew point: 2 °F

Location of WainwrightLocation

Historic Weather in Wainwright — Graph

°F

Wainwright temperature yesterday

Maximum temperature yesterday: -3 °F (at 7:53 AM)
Minimum temperature yesterday: -11 °F (at 12:53 AM)
Average temperature yesterday: -7 °F

Past Weeks' High & Low Weather Summary

 TemperatureHumidityPressure
High35 °F (Nov 13, 2:53 PM)96% (Nov 14, 2:53 PM)30.51 "Hg (Nov 14, 2:53 PM)
Low-13 °F (Nov 23, 5:53 PM)70% (Nov 27, 12:53 AM)29.50 "Hg (Nov 21, 7:53 PM)
Average10 °F83%29.99 "Hg
* Reported Nov 13 2:53 PM — Nov 28 2:53 PM, Wainwright, Weather by CustomWeather, © 2014

Note: Actual official high and low records may vary slightly from our data, if they occured in-between our weather recording intervals... More about our weather records

Advertising

Wainwright weather history for previous 24 hours

 ConditionsComfort  
Time TempWeatherWind HumidityBarometerVisibility
2:53 PM
Nov 28
6 °FLight snow. Overcast.20 mph79%30.11 "Hg4 mi
1:53 PM6 °FOvercast.21 mph79%30.09 "Hg5 mi
12:53 PM6 °FOvercast.22 mph79%30.09 "Hg5 mi
11:53 AM6 °FMostly cloudy.18 mph79%30.08 "Hg7 mi
10:53 AM6 °FOvercast.17 mph79%30.08 "Hg8 mi
9:53 AM6 °FMore clouds than sun.18 mph79%30.07 "Hg7 mi
8:53 AM5 °FOvercast.21 mph76%30.06 "Hg7 mi
7:53 AM2 °FOvercast.18 mph80%30.05 "Hg9 mi
6:53 AM1 °FPartly sunny.14 mph75%30.06 "Hg10 mi
5:53 AM-1 °FPassing clouds.20 mph71%30.03 "Hg8 mi
4:53 AM-5 °FClear.12 mph75%30.05 "Hg10 mi
3:53 AM-5 °FClear.14 mph75%30.05 "Hg10 mi
2:53 AM-6 °FClear.9 mph75%30.06 "Hg10 mi
1:53 AM-7 °FClear.8 mph79%30.08 "Hg10 mi
12:53 AM-8 °FSunny.6 mph74%30.06 "Hg10 mi
11:53 PM
Nov 27
-9 °FClear.6 mph74%30.08 "Hg10 mi
10:53 PM-8 °FClear.6 mph74%30.09 "Hg10 mi
9:53 PM-8 °FClear.8 mph74%30.08 "Hg10 mi
8:53 PM-9 °FClear.3 mph78%30.08 "Hg10 mi
7:53 PM-7 °FClear.3 mph75%30.08 "Hg10 mi
6:53 PM-6 °FSunny.5 mph78%30.10 "Hg10 mi
5:53 PM-8 °FSunny.6 mph78%30.10 "Hg10 mi
4:53 PM-7 °FSunny.5 mph75%30.12 "Hg10 mi
Weather by CustomWeather, © 2014

See weather overviewHow to use our weather pages